THOR ABLESTAR DEB, 1942

Orbit data source: Space-Track

THOR ABLESTAR DEB, 1942 is space debris in LEO originally from a launch on Thu, 29 Jun 1961 UTC launched from the Air Force Eastern Test Range (AFETR). Debris objects in space refer to the collection of defunct objects orbiting the Earth. Examples of debris include non-operational satellites, rocket bodies, and fragments generated from explosions, collisions, or faulty payload assembly.

Loading next visibility...
Identifier
1942, 1961-015HS
Orbit
LEO
Last TLE update
5 hours ago
Origin
Manufacturer
Unknown
Mission
Spacecraft
Bus & Motor
Unknown
Mass
Unknown
Launch date (UTC)
1961-06-29 (64 years ago)
Launch vehicle
Unknown
Launch site
Air Force Eastern Test Range (AFETR)
Object type
Payload
Rocket body
Debris
Shape & HBR
Unknown
Radar Cross Section
Small (<0.1 m²)

Expand to show TLE details & history

TLE from 5 hours ago
0 THOR ABLESTAR DEB
1  1942U 61015HS  25182.90004916 -.00000130  00000-0 -14909-3 0  9998
2  1942  67.2718  15.4736 0335356 132.3180 334.9099 13.12998704 71399
Epoch: 2025-07-01T21:36Z
TLE epoch observation values (Epoch: 2025-07-01T21:36:04.247Z)
Latitude
62.81691°
Longitude
-102.96578°
Altitude
992.646 km
Speed
7.472 km/s
True Right ascension
09h 24m 57s
True Declination
62° 40' 53"
Sunlit
Object was in daylight at epoch
Visualization orbit readout
Latitude
50.91714°
Longitude
161.68038°
Altitude
1,145.152 km
Speed
7.321 km/s
Apparent Right ascension
02h 47m 36s
Apparent Declination
10° 16' 42"
Sunlit
Object is in daylight
Visualization observer readout
Local Sidereal Time
14:32:09
Azimuth
355.057° N
Elevation
-39.678°
Doppler factor
1
Orbital elements
Apogee altitude
1,464.453 km
Perigee altitude
955.509 km
Semi-major axis
7,588.118 km
Eccentricity
0.03354
Inclination
67.2718°
RAAN
15.4736°
Arg. of periapsis
132.318°
True anomaly
Unknown
Mean anomaly
334.9099°
Eccentric anomaly
Unknown
Mean motion
3.28354 °/min
Orbital period
109.64 mins
BSTAR
-0.00014909
Loading maneuver chart data...
Loading SW <> Apogee altitude chart data...

THOR ABLESTAR DEB Visibility forecast

Observer location: undefined°, undefined°

Span
Click to sort rows by Start time (UTC) header in descending order
Start Az.
Max El. time (UTC)
Max El. Az.
Max El.
End time (UTC)
End Az.
13 mins2025-07-02 13:37:00.427Z177.617° S2025-07-02 13:44:00.427Z109.386° ESE34.768°2025-07-02 13:50:00.427Z43.591° NE
12 mins2025-07-02 15:31:00.427Z244.143° WSW2025-07-02 15:37:00.427Z311.078° NW32.387°2025-07-02 15:43:00.427Z14.332° NNE
10 mins2025-07-02 23:15:00.427Z342.237° N2025-07-02 23:20:00.427Z73.989° E40.362°2025-07-02 23:25:00.427Z135.893° SSE
7 mins2025-07-03 01:09:00.427Z287.928° WNW2025-07-03 01:12:00.427Z252.273° W19.044°2025-07-03 01:16:00.427Z211.292° SW
|